Free Severe Weather Alerts by Email and Text Message   

 
Follow iAlert.com on twitter @ialertcom
Search For Active Alerts in Your Area  
  Hi Guest:  [ Sign-up / Services ] [ Login ]

Current weather by "City, St" or "zip code"  

 

Advertise Here

Hazardous Weather Conditions

Beach Hazards Statement issued December 14 at 6:47PM PST until December 18 at 10:00PM PST

Current Conditions: LOS ANGELES, CALIFORNIA

Fair


51.0 F

Last Updated on Dec 15 2018, 4:51 am PST
Humidity: 52%
Wind Speed: E 4.6 mph
Barometer 30.06 in
Dewpoint: 34.0 F
Visibility: 10.00 mi
Precip: --
Heat Index: NA
Wind Chill: 50 F
Current conditions at:

Santa Monica, Santa Monica Municipal Airport, CA (KSMO)

Lat: 34.01 Lon: -118.45

Local Radar Image active severe weather and emergency alerts image image weather storm and storm spotter reports image weather observation monitoring service image
Local
Radar
Active
Alerts
Storm Reports Weather
Monitoring

Weather Alert Notification Services


ialert severe weather and emergency alerts by text message and email ialert daily weather forecast by email and text message service ialert real-time weather-observation monitoring and alert notification service ialert storm report monitoring alert notification

Observation History for LOS ANGELES, CALIFORNIA


Time Wind
(mph)
Vis
(mi)
Weather Precip (in) Temperature (F) Relative
Humidity
Wind
Chill
(°F)
Heat
Index
(°F)
Pressure
Air Dwpt altimeter
(in)
sea level
(mb)
4:51 am PST E 4.6 10.00 Fair -- 51.0 34.0 52% 50 NA 30.06 1017.9
3:51 am PST N 3.5 10.00 Fair -- 54.0 33.1 45% NA NA 30.07 1018.3
2:51 am PST N 0.0 10.00 Fair -- 54.0 33.1 45% NA NA 30.10 1019.0
1:51 am PST NW 3.5 10.00 Fair -- 57.0 30.9 37% NA NA 30.09 1018.9
12:51 am PST NW 4.6 10.00 Fair -- 59.0 30.9 35% 59 NA 30.10 1019.2
11:51 pm PST NE 4.6 10.00 Fair -- 59.0 36.0 42% 59 NA 30.11 1019.5
10:51 pm PST E 4.6 10.00 Fair -- 59.0 42.1 54% 59 NA 30.12 1019.7
9:51 pm PST N 4.6 10.00 Fair -- 61.0 51.1 70% 61 NA 30.13 1020.1
8:51 pm PST W 3.5 10.00 Fair -- 61.0 54.0 78% NA NA 30.13 1020.1
7:51 pm PST N 0.0 10.00 Fair -- 62.0 54.0 75% NA NA 30.12 1020.0
6:51 pm PST SW 4.6 10.00 Fair -- 63.0 52.0 68% 64 NA 30.13 1020.0
5:51 pm PST W 3.5 10.00 Fair -- 64.0 48.9 58% NA NA 30.12 1019.8
4:51 pm PST N 0.0 10.00 Fair -- 65.0 45.0 49% NA NA 30.11 1019.7
3:51 pm PST N 0.0 10.00 Fair -- 67.0 46.9 49% NA NA 30.11 1019.5
2:51 pm PST N 0.0 10.00 Fair -- 68.0 48.0 49% NA NA 30.11 1019.3
1:51 pm PST N 0.0 10.00 Fair -- 69.0 46.0 44% NA NA 30.11 1019.5
12:51 pm PST N 0.0 10.00 Fair -- 68.0 39.0 35% NA NA 30.13 1020.0
11:51 am PST NE 3.5 10.00 Fair -- 70.0 28.0 21% NA NA 30.15 1020.7
10:51 am PST N 0.0 10.00 Fair -- 67.0 34.0 30% NA NA 30.17 1021.5
9:51 am PST E 3.5 10.00 Fair -- 65.0 37.0 36% NA NA 30.20 1022.4
8:51 am PST N 0.0 10.00 Fair -- 63.0 28.9 28% NA NA 30.19 1022.3
7:51 am PST NE 4.6 10.00 Fair -- 59.0 32.0 36% 59 NA 30.19 1022.3
6:51 am PST NE 4.6 10.00 Fair -- 59.0 28.9 32% 59 NA 30.18 1021.9
5:51 am PST E 3.5 10.00 Fair -- 59.0 28.9 32% NA NA 30.17 1021.6

Regional Weather Observation:


Los Angeles / USC Campus Downtown, CA (KCQT)

Fair
51.0 F

Burbank - Bob Hope Airport, CA (KBUR)

Fair
45.0 F

Los Angeles, Whiteman Airport, CA (KWHP)

Clear
59.0 F

El Monte, CA (KEMT)

Fair
66.0 F

Los Angeles, Los Angeles International Airport, CA (KLAX)

Fair
52.0 F

Hawthorne, Hawthorne Municipal Airport, CA (KHHR)

Fair
50.0 F

Advertise Here

Advertise Here